Regional Weather Roundup
Issued by NWS Sioux Falls, SD

Home | Current Version | Previous Version | Graphics & Text | Print | Product List | Glossary On
Versions: 1 2 3 4 5 6 7 8 9 10 11 12 13 14 15 16 17 18 19 20 21 22 23 24 25 26 27 28 29 30 31 32 33 34 35 36 37 38 39 40 41 42 43 44 45 46 47 48 49 50
000
ASUS43 KFSD 230402
RWRFSD

WEATHER ROUNDUP FOR SE SOUTH DAKOTA/SW MINNESOTA/NW IOWA
NATIONAL WEATHER SERVICE SIOUX FALLS SD
1100 PM CDT MON MAY 22 2017

NOTE: "FAIR" INDICATES FEW OR NO CLOUDS BELOW 12,000 FEET WITH NO
SIGNIFICANT WEATHER AND OR OBSTRUCTIONS TO VISIBILITY.


SDZ038>040-050-052>070-230500-
SOUTHEAST SOUTH DAKOTA

CITY           SKY/WX    TMP DP  RH WIND       PRES   REMARKS
BROOKINGS      CLOUDY    49  44  83 NW9       29.93R
CHAMBERLAIN    NOT AVBL
HURON          CLOUDY    50  44  80 N12       29.98R
MADISON        CLOUDY    48  48 100 NW9       29.93S
MITCHELL       CLOUDY    53  45  74 N12       29.97R
SIOUX FALLS    CLOUDY    50  47  89 W7        29.92F
WINNER         CLOUDY    51  46  83 NW6       30.03R
YANKTON        MOCLDY    48  45  89 SW7       29.96S
$$

MNZ071-072-080-081-089-090-097-098-230500-
SOUTHWEST MINNESOTA

CITY           SKY/WX    TMP DP  RH WIND       PRES   REMARKS
FAIRMONT       LGT RAIN  52  47  83 N6        29.87S
JACKSON        DRIZZLE   50  46  87 NW14      29.89S
LUVERNE        CLOUDY    50  45  81 NW5       29.92S
MARSHALL       CLOUDY    50  46  86 NW6       29.90S
MONTEVIDEO     CLOUDY    52  43  71 NW3       29.89S
PIPESTONE      CLOUDY    50  45  81 NW5       29.91F
REDWOOD FALLS  CLOUDY    53  43  68 NW7       29.87S
TRACY          CLOUDY    51  49  93 W6        29.90S
WINDOM         RAIN      52  48  87 NW10      29.89S
WORTHINGTON    LGT RAIN  49  47  93 NW9       29.91R
$$

IAZ001>003-012>014-020>022-031-032-NEZ013-014-SDZ071-230500-
NORTHWEST IOWA

CITY           SKY/WX    TMP DP  RH WIND       PRES   REMARKS
CHEROKEE       MOCLDY    50  48  92 NW8       29.91R
DENISON        CLEAR     55  48  76 NW7G14    29.90S
ESTHERVILLE    CLOUDY    51  50  96 N9        29.87S
LE MARS        CLOUDY    54  46  76 N8        29.93S
ORANGE CITY    CLOUDY    52  46  82 N8        29.92S
SHELDON        CLOUDY    52  45  76 N13         N/A
SIOUX CITY     PTCLDY    52  47  83 NW9       29.94R
SPENCER        CLOUDY    52  50  93 NW10      29.89S
STORM LAKE     MOCLDY    52  48  87 NW9G15    29.89S
$$

ABBREVIATIONS USED IN REMARKS
   TC - TEMPERATURE IN CELSIUS
  WCI - WIND CHILL INDEX
   HX - HEAT INDEX
  VSB - VISIBILITY





USA.gov is the U.S. government's official web portal to all federal, state and local government web resources and services.